Flag for Germany Weather past 2 weeks in Lampertheim, Hesse, Germany

Now
63 °F

Cloudy.


Feels Like: 63 °F
Forecast: 47 / 64 °F
Wind: 10 mph from West

Location: Baden Wurttemberg - Neuostheim

Current Time: Sep 5, 2015 at 7:24:34 PM

Latest Report: Sep 5, 2015 at 6:50 PM


Visibility: N/A

Pressure: 30.04 "Hg

Humidity: 59%

Dew point: 48 °F

Location of LampertheimLocation

Historic Weather in Lampertheim — Graph

°F

Lampertheim temperature yesterday

Maximum temperature yesterday: 68 °F (at 1:20 PM)
Minimum temperature yesterday: 50 °F (at 6:20 AM)
Average temperature yesterday: 61 °F

Past Weeks' High & Low Weather Summary

 TemperatureHumidityPressure
High93 °F (Aug 30, 4:50 PM)100% (Aug 28, 7:50 AM)30.21 "Hg (Aug 28, 7:50 AM)
Low48 °F (Sep 5, 7:20 AM)21% (Aug 31, 4:20 PM)29.68 "Hg (Aug 23, 4:50 PM)
Average71 °F56%29.97 "Hg
* Reported Aug 21 6:20 PM — Sep 5 6:20 PM, Lampertheim, Weather by CustomWeather, © 2015

Note: Actual official high and low records may vary slightly from our data, if they occured in-between our weather recording intervals... More about our weather records

Advertising

Lampertheim weather history for previous 24 hours

 ConditionsComfort  
Time TempWeatherWind HumidityBarometerVisibility
6:20 PM
Sat, Sep 5
63 °FPartly sunny.9 mph59%30.04 "HgN/A
5:50 PM63 °FMostly cloudy.10 mph59%30.04 "HgN/A
5:20 PM63 °FBroken clouds.10 mph59%30.07 "HgN/A
4:50 PM61 °FBroken clouds.13 mph63%30.04 "HgN/A
4:20 PM61 °FMostly cloudy.12 mph63%30.07 "HgN/A
3:50 PM61 °FMostly cloudy.13 mph63%30.04 "HgN/A
3:20 PM63 °FBroken clouds.13 mph59%30.07 "HgN/A
2:50 PM61 °FBroken clouds.14 mph63%30.07 "HgN/A
2:20 PM61 °FScattered showers. Partly sunny.14 mph68%30.04 "HgN/A
1:50 PM61 °FPartly sunny.10 mph63%30.04 "HgN/A
1:20 PM61 °FOvercast.9 mph63%30.04 "HgN/A
12:50 PM61 °FOvercast.12 mph59%30.04 "HgN/A
12:20 PM61 °FOvercast.9 mph59%30.04 "HgN/A
11:50 AM59 °FPartly sunny.3 mph63%30.04 "HgN/A
11:20 AM59 °FOvercast.7 mph63%30.04 "HgN/A
10:50 AM57 °FPartly sunny.7 mph63%30.04 "HgN/A
10:20 AM57 °FPartly sunny.7 mph67%30.04 "HgN/A
9:50 AM55 °FOvercast.7 mph72%30.04 "HgN/A
9:20 AM54 °FLight rain. Overcast.7 mph77%30.04 "HgN/A
8:50 AM54 °FPartly sunny.5 mph72%30.04 "HgN/A
8:20 AM52 °FScattered clouds.3 mph82%30.04 "HgN/A
7:50 AM50 °FSunny.3 mph88%30.04 "Hg10 mi
7:20 AM48 °FClear.5 mph87%30.04 "Hg10 mi
8:50 PM
Fri, Sep 4
61 °FSunny.7 mph48%29.98 "Hg10 mi
8:20 PM63 °FSunny.9 mph49%29.98 "Hg10 mi
7:50 PM64 °FSunny.12 mph43%29.98 "Hg10 mi
7:20 PM64 °FPassing clouds.9 mph43%29.98 "HgN/A
Weather by CustomWeather, © 2015

See weather overviewHow to use our weather pages